Location: Street
(51.1247°N, 2.7429°W)
Time: 06:44:35
(UTC+00:00)

SR - Pass Details

Date: 29 November 2020
Orbit: 575 x 880 km, 66.7° (Epoch: 25 January)

Event Time Altitude Azimuth Distance (km) Brightness Sun altitude
Rises 21:16:24 0° 277° (W) 2,905 ? -46.8°
Enters shadow 21:16:45 - 279° (W) 2,789 ? -46.8°
Reaches altitude 10° 21:19:19 10° 298° (WNW) 2,051 - -47.2°
Maximum altitude 21:22:24 17° 340° (NNW) 1,678 - -47.6°
Drops below altitude 10° 21:25:39 10° 22° (NNE) 2,180 - -48.1°
Sets 21:28:54 0° 42° (NE) 3,171 - -48.5°
